Regional Weather Roundup
Issued by NWS

Home | Current Version | Previous Version | Text Only | Print | Product List | Glossary On
Versions: 1 2 3 4 5 6 7 8 9 10 11 12 13 14 15 16 17 18 19 20 21 22 23 24 25 26 27 28 29 30 31 32 33 34 35 36 37 38 39 40 41 42 43 44 45 46 47 48 49 50
000
ASUS45 KCYS 200410
RWRWY

WYOMING REGIONAL WEATHER ROUNDUP
NATIONAL WEATHER SERVICE CHEYENNE WY
1000 PM MDT FRI SEP 19 2014

NOTE:  "FAIR" INDICATES FEW OR NO CLOUDS BELOW 12,000 FEET
WITH NO SIGNIFICANT WEATHER AND/OR OBSTRUCTIONS TO VISIBILITY.

WYZ001-200500-
YELLOWSTONE NATIONAL PARK

CITY           SKY/WX    TMP DP  RH WIND       PRES   REMARKS
LK YELLOWSTONE   N/A     43  40  89 CALM      30.30R
W YELLOWSTONE  NOT AVBL

$$
WYZ002>013-054>058-071-098>099-200500-
NORTHERN WYOMING

CITY           SKY/WX    TMP DP  RH WIND       PRES   REMARKS
JACKSON        CLEAR     52  41  66 CALM      30.22R
CODY             N/A    N/A N/A N/A MISG        N/A
GREYBULL       PTCLDY    72  42  34 NW15      30.00R
WORLAND        CLEAR     65  46  50 N8        30.02R
SHERIDAN       PTCLDY    57  49  74 SE6       30.04R
BUFFALO        PTCLDY    58  45  62 NW7       30.09R
GILLETTE       MOCLDY    56  47  71 S3        30.04R
HULETT         CLOUDY    64  45  48 MISG      30.03
NEWCASTLE      FAIR      63  43  48 NW7       30.02

$$
WYZ014>020-022>026-101>103-200500-
CENTRAL WYOMING

CITY           SKY/WX    TMP DP  RH WIND       PRES   REMARKS
BIG PINEY      CLEAR     50  37  61 N10       30.26R
PINEDALE       CLEAR     46  37  71 W7        30.27R
DUBOIS         FAIR      54  34  47 NW12      30.23R
LANDER         CLEAR     64  34  32 W12       30.09R
RIVERTON       CLEAR     64  36  35 NW12      30.10R
CASPER         CLEAR     61  43  51 NE7       30.10R
DOUGLAS        CLEAR     63  44  50 CALM      30.09R

$$
WYZ021-027>030-104>119-200500-
SOUTHERN WYOMING

CITY           SKY/WX    TMP DP  RH WIND       PRES   REMARKS
EVANSTON       CLEAR     60  39  45 N8        30.26R
KEMMERER       CLEAR     52  36  54 N10       30.28R
FORT BRIDGER   FAIR      60  38  45 NW6       30.28R
ROCK SPRINGS   NOT AVBL
DIXON          FAIR      55  44  67 CALM      30.21R
RAWLINS        CLEAR     65  33  30 W12       30.18R
SARATOGA       FAIR      59  37  44 SW6       30.21R
LARAMIE        CLEAR     59  40  49 SW6       30.20R
CHEYENNE       MOCLDY    68  41  37 NW3       30.11R
TORRINGTON     CLEAR     62  49  62 SE3       29.97R
PINE BLUFFS    FAIR      59  52  77 CALM      30.04S

$$



USA.gov is the U.S. government's official web portal to all federal, state and local government web resources and services.